Iowa Falls, IA

2:42 AM CST on December 11, 2019 (GMT -0600)
Iowa Falls Municipal

Weather History for KIFA - October, 2019

Change the Weather History Date:

Saturday, October 26, 2019

  Actual Average Record
Temperature  
Mean Temperature 40 °F -  
Max Temperature 51 °F 61 °F 81 °F (1955)
Min Temperature 28 °F 36 °F 18 °F (1981)
Degree Days  
Heating Degree Days 26    
Moisture  
Dew Point 27 °F    
Average Humidity 66    
Maximum Humidity 83    
Minimum Humidity 36    
Precipitation  
Precipitation 0.00 in - - ()
Sea Level Pressure  
Sea Level Pressure 29.89 in    
Wind  
Wind Speed 4 mph ()    
Max Wind Speed 14 mph    
Max Gust Speed 16 mph    
Visibility 9.8 miles    
Events      
Averages and records for this station are not official NWS values.
T = Trace of Precipitation, MM = Missing Value Source: Averaged Metar Reports

Daily Weather History Graph

Daily Weather History Graph

Search for Another Location

Airport or City:

Astronomy

Oct. 26, 2019 Rise Set
Actual Time 7:38 AM CDT 6:14 PM CDT
Civil Twilight 7:10 AM CDT 6:43 PM CDT
Nautical Twilight 6:37 AM CDT 7:16 PM CDT
Astronomical Twilight 6:04 AM CDT 7:48 PM CDT
Moon 5:31 AM CDT (10/26) 5:53 PM CDT (10/26)
Length of Visible Light 11h 33m
Length of Day
10h 35m
Waning Crescent, 3% of the Moon is Illuminated
Oct 26
Waning Crescent
Oct 27
New
Nov 4
First Quarter
Nov 12
Full
Nov 19
Last Quarter

Hourly Weather History & Observations

Time (CDT) Temp. Windchill Dew Point Humidity Pressure Visibility Wind Dir Wind Speed Gust Speed Precip Events Conditions
12:15 AM 35.2 °F 28.8 °F 26.1 °F 69% 30.14 in 10.0 mi SSE 8.1 mph - N/A   Clear
12:35 AM 35.6 °F 29.9 °F 25.7 °F 67% 30.12 in 10.0 mi South 6.9 mph - N/A   Clear
12:55 AM 34.7 °F 29.6 °F 25.2 °F 68% 30.12 in 10.0 mi South 5.8 mph - N/A   Clear
1:15 AM 33.3 °F 27.9 °F 25.2 °F 72% 30.11 in 10.0 mi SSE 5.8 mph - N/A   Clear
1:35 AM 33.1 °F 30.0 °F 25.3 °F 73% 30.11 in 10.0 mi SSE 3.5 mph - N/A   Clear
1:55 AM 32.9 °F 28.5 °F 24.6 °F 72% 30.10 in 10.0 mi SSE 4.6 mph - N/A   Clear
2:15 AM 32.7 °F 28.3 °F 24.8 °F 73% 30.09 in 10.0 mi SSE 4.6 mph - N/A   Clear
2:35 AM 32.9 °F - 24.3 °F 71% 30.09 in 10.0 mi Calm Calm - N/A   Clear
2:55 AM 32.2 °F 28.9 °F 24.3 °F 73% 30.08 in 10.0 mi SE 3.5 mph - N/A   Clear
3:15 AM 31.8 °F 28.5 °F 23.5 °F 71% 30.08 in 10.0 mi SE 3.5 mph - N/A   Clear
3:35 AM 30.7 °F 26.0 °F 23.9 °F 76% 30.07 in 10.0 mi SE 4.6 mph - N/A   Clear
3:55 AM 31.1 °F 24.5 °F 24.6 °F 77% 30.07 in 10.0 mi SE 6.9 mph - N/A   Clear
4:15 AM 30.9 °F 24.3 °F 24.6 °F 77% 30.06 in 10.0 mi SSE 6.9 mph - N/A   Clear
4:35 AM 31.1 °F 24.5 °F 24.8 °F 77% 30.06 in 10.0 mi SSE 6.9 mph - N/A   Clear
4:55 AM 31.1 °F 26.4 °F 25.3 °F 79% 30.05 in 10.0 mi SSE 4.6 mph - N/A   Clear
5:15 AM 30.2 °F 25.4 °F 24.8 °F 80% 30.04 in 10.0 mi SSE 4.6 mph - N/A   Clear
5:35 AM 30.2 °F 24.3 °F 24.8 °F 80% 30.03 in 10.0 mi SE 5.8 mph - N/A   Clear
5:55 AM 29.8 °F 24.9 °F 24.4 °F 80% 30.02 in 10.0 mi SE 4.6 mph - N/A   Clear
6:15 AM 29.3 °F 23.2 °F 24.4 °F 82% 30.02 in 10.0 mi SE 5.8 mph - N/A   Clear
6:35 AM 29.3 °F 23.2 °F 24.4 °F 82% 30.01 in 10.0 mi SE 5.8 mph - N/A   Clear
6:55 AM 28.6 °F 24.8 °F 23.9 °F 83% 30.00 in 10.0 mi SE 3.5 mph - N/A   Clear
7:15 AM 28.9 °F 25.2 °F 24.4 °F 83% 29.99 in 10.0 mi SE 3.5 mph - N/A   Clear
7:35 AM 29.3 °F 25.6 °F 24.8 °F 83% 29.99 in 10.0 mi SE 3.5 mph - N/A   Clear
7:55 AM 29.5 °F 25.9 °F 25.0 °F 83% 29.98 in 10.0 mi SE 3.5 mph - N/A   Clear
8:15 AM 29.7 °F - 25.2 °F 83% 29.97 in 10.0 mi Calm Calm - N/A   Clear
8:35 AM 30.9 °F - 26.1 °F 82% 29.96 in 10.0 mi Calm Calm - N/A   Clear
8:55 AM 32.9 °F 29.8 °F 27.9 °F 82% 29.96 in 10.0 mi ESE 3.5 mph - N/A   Clear
9:15 AM 34.7 °F 31.8 °F 28.6 °F 78% 29.95 in 10.0 mi ESE 3.5 mph - N/A   Clear
9:35 AM 36.7 °F 32.0 °F 29.5 °F 75% 29.95 in 10.0 mi SE 5.8 mph - N/A   Clear
9:55 AM 39.2 °F 34.2 °F 30.6 °F 71% 29.94 in 10.0 mi SSE 6.9 mph - N/A   Clear
10:15 AM 41.2 °F 39.2 °F 30.6 °F 66% 29.91 in 10.0 mi SSE 3.5 mph - N/A   Clear
10:35 AM 42.8 °F 39.3 °F 29.7 °F 60% 29.91 in 7.0 mi SE 5.8 mph - N/A   Clear
10:55 AM 44.4 °F 41.2 °F 30.0 °F 57% 29.91 in 10.0 mi SE 5.8 mph - N/A   Clear
11:15 AM 45.0 °F 38.9 °F 29.3 °F 54% 29.92 in 10.0 mi SE 12.7 mph - N/A   Clear
11:55 AM 44.6 °F 38.1 °F 27.5 °F 51% 29.91 in 10.0 mi SSE 13.8 mph - N/A   Clear
12:15 PM 45.9 °F 41.2 °F 27.5 °F 49% 29.90 in 10.0 mi SE 9.2 mph 16.1 mph N/A   Clear
12:35 PM 47.1 °F - 26.1 °F 44% 29.89 in 10.0 mi SSE 11.5 mph - N/A   Clear
12:55 PM 47.5 °F - 28.0 °F 47% 29.88 in 10.0 mi SSE 6.9 mph - N/A   Clear
1:15 PM 48.2 °F - 27.1 °F 44% 29.86 in 10.0 mi SE 6.9 mph - N/A   Clear
1:35 PM 48.0 °F - 27.0 °F 44% 29.84 in 10.0 mi SSE 4.6 mph - N/A   Clear
1:55 PM 48.6 °F - 25.9 °F 41% 29.81 in 10.0 mi ESE 3.5 mph - N/A   Clear
2:15 PM 50.2 °F - 25.3 °F 38% 29.80 in 10.0 mi East 3.5 mph - N/A   Clear
2:35 PM 50.0 °F - 25.7 °F 39% 29.80 in 10.0 mi SE 3.5 mph - N/A   Clear
2:55 PM 50.0 °F - 25.0 °F 38% 29.80 in 10.0 mi SE 4.6 mph - N/A   Clear
3:15 PM 50.7 °F - 24.4 °F 36% 29.79 in 10.0 mi SE 5.8 mph - N/A   Clear
3:35 PM 51.1 °F - 26.1 °F 38% 29.77 in 10.0 mi ESE 6.9 mph - N/A   Clear
3:55 PM 51.3 °F - 26.8 °F 39% 29.77 in 10.0 mi SE 6.9 mph - N/A   Clear
4:15 PM 51.1 °F - 26.8 °F 39% 29.77 in 10.0 mi ESE 6.9 mph - N/A   Clear
4:35 PM 50.9 °F - 26.8 °F 39% 29.77 in 10.0 mi ESE 5.8 mph - N/A   Clear
4:55 PM 50.5 °F - 27.7 °F 41% 29.75 in 10.0 mi ESE 8.1 mph - N/A   Clear
5:15 PM 49.3 °F - 28.0 °F 44% 29.75 in 10.0 mi SE 5.8 mph - N/A   Clear
5:55 PM 49.1 °F - 28.8 °F 45% 29.74 in 10.0 mi SE 3.5 mph - N/A   Clear
6:15 PM 47.3 °F - 29.3 °F 50% 29.74 in 10.0 mi Calm Calm - N/A   Clear
6:35 PM 45.5 °F 44.2 °F 29.5 °F 54% 29.73 in 1.8 mi SE 3.5 mph - N/A   Haze
6:55 PM 43.5 °F 41.9 °F 29.7 °F 58% 29.73 in 7.0 mi ESE 3.5 mph - N/A   Clear
7:15 PM 43.7 °F - 29.3 °F 57% 29.72 in 7.0 mi Calm Calm - N/A   Clear
7:35 PM 41.7 °F 39.8 °F 29.7 °F 62% 29.72 in 10.0 mi ESE 3.5 mph - N/A   Clear
7:55 PM 40.1 °F 38.0 °F 29.7 °F 66% 29.71 in 10.0 mi ESE 3.5 mph - N/A   Clear
8:15 PM 38.5 °F 35.0 °F 29.5 °F 70% 29.71 in 10.0 mi ESE 4.6 mph - N/A   Clear
8:35 PM 38.3 °F - 30.0 °F 72% 29.71 in 10.0 mi Calm Calm - N/A   Clear
8:55 PM 34.0 °F - 27.3 °F 77% 29.71 in 10.0 mi Calm Calm - N/A   Clear
9:15 PM 34.5 °F - 28.8 °F 79% 29.72 in 10.0 mi Calm Calm - N/A   Clear
9:35 PM 33.6 °F - 28.0 °F 80% 29.72 in 10.0 mi Calm Calm - N/A   Clear
9:55 PM 33.6 °F - 28.0 °F 80% 29.73 in 10.0 mi Calm Calm - N/A   Clear
10:15 PM 33.1 °F - 28.4 °F 83% 29.73 in 10.0 mi Calm Calm - N/A   Clear
10:35 PM 33.6 °F - 27.9 °F 79% 29.73 in 10.0 mi Calm Calm - N/A   Clear
10:55 PM 34.0 °F - 28.6 °F 81% 29.73 in 10.0 mi Calm Calm - N/A   Clear
11:15 PM 32.2 °F - 27.3 °F 82% 29.73 in 10.0 mi Calm Calm - N/A   Clear
11:35 PM 32.7 °F - 27.5 °F 81% 29.72 in 10.0 mi Calm Calm - N/A   Clear
11:55 PM 31.5 °F - 26.2 °F 81% 29.72 in 10.0 mi Calm Calm - N/A   Clear